This demonstration page uses our WeatherBlox Daily Observations layout. Learn more.

Left ArrowRight Arrow

Hourly Observations for April 2, 2017

Temp ( °F °C ) Dew Point ( °F °C ) Humidity (%) Winds ( mph kmh ) Pressure ( in mb ) Visibility ( mi km ) Precip ( " mm )
12:53 am 00:53 Clear 47 8.3 32 0 56 56 WNW 17 28 29.84 1011 10 16 0.00 0.00
1:53 am 01:53 Clear 44 6.7 34 1.1 68 68 WNW 14 22 29.85 1011 10 16 0.00 0.00
2:53 am 02:53 Clear 42 5.6 34 1.1 73 73 WNW 12 19 29.86 1011 10 16 0.00 0.00
3:53 am 03:53 Clear 40 4.4 34 1.1 79 79 W 10 17 29.88 1012 10 16 0.00 0.00
4:53 am 04:53 Clear 38 3.3 33 0.6 83 83 W 12 19 29.89 1012 10 16 0.00 0.00
5:53 am 05:53 Clear 37 2.8 32 0 82 82 WSW 9 15 29.91 1013 10 16 0.00 0.00
6:53 am 06:53 Clear 35 1.7 31 -0.6 85 85 SW 7 11 29.92 1013 10 16 0.00 0.00
7:53 am 07:53 Sunny 35 1.7 31 -0.6 85 85 Calm 29.91 1013 10 16 0.00 0.00
8:53 am 08:53 Sunny 44 6.7 34 1.1 68 68 SSW 7 11 29.89 1012 10 16 0.00 0.00
9:53 am 09:53 Mostly Sunny 46 7.8 34 1.1 63 63 SW 13 20 29.88 1012 10 16 0.00 0.00
10:53 am 10:53 Cloudy 50 10 32 0 50 50 SW 9 15 29.87 1012 10 16 0.00 0.00
11:53 am 11:53 Mostly Cloudy 53 11.7 28 -2.2 38 38 SSW 8 13 29.84 1010 10 16 0.00 0.00
12:53 pm 12:53 Mostly Cloudy 56 13.3 26 -3.3 32 32 WSW 8 13 29.80 1009 10 16 0.00 0.00
1:46 pm 13:46 Mostly Cloudy 55 13 34 1 44 44 N 13 20 29.74 1007 10 16 0.00 0.00
1:53 pm 13:53 Mostly Cloudy 53 11.7 32 0 45 45 N 12 19 29.79 1009 10 16 0.00 0.00
2:12 pm 14:12 Cloudy with Nearby Thunderstorms 52 11 30 -1 44 44 NNW 12 19 29.77 1008 10 16 0.00 0.00
2:31 pm 14:31 Cloudy with Light Rain 45 7.2 38 3.3 77 77 WNW 23 37 29.85 1011 6 10 0.00 0.03
2:51 pm 14:51 Cloudy with Light Rain 43 6 39 4 87 87 N 16 26 29.83 1010 8 13 0.02 0.51
2:53 pm 14:53 Cloudy with Light Rain 43 6.1 39 3.9 86 86 N 15 24 29.85 1011 10 16 0.03 0.76
3:01 pm 15:01 Cloudy 43 6.1 39 3.9 86 86 NNW 12 19 29.85 1011 10 16 0.00 0.03
3:53 pm 15:53 Cloudy 47 8.3 39 3.9 74 74 Calm 29.85 1011 10 16 0.00 0.03
4:53 pm 16:53 Cloudy 46 7.8 40 4.4 79 79 S 12 19 29.85 1011 10 16 0.00 0.00
5:53 pm 17:53 Partly Cloudy 47 8.3 38 3.3 71 71 WSW 7 11 29.84 1011 10 16 0.00 0.00
6:53 pm 18:53 Mostly Sunny 49 9.4 29 -1.7 46 46 SW 12 19 29.82 1010 10 16 0.00 0.00
7:53 pm 19:53 Clear 40 4.4 33 0.6 77 77 S 8 13 29.83 1010 10 16 0.00 0.00
8:53 pm 20:53 Mostly Clear 41 5 33 0.6 73 73 WNW 14 22 29.83 1010 10 16 0.00 0.00
9:53 pm 21:53 Mostly Clear 41 5 33 0.6 73 73 WNW 16 26 29.87 1011 10 16 0.00 0.00
10:53 pm 22:53 Mostly Cloudy 38 3.3 34 1.1 86 86 WNW 6 9 29.89 1012 10 16 0.00 0.00
11:53 pm 23:53 Clear 33 0.6 31 -0.6 92 92 W 12 19 29.89 1012 10 16 0.00 0.00

Powered by AerisWeather